CW3322 Weather Reports


Display with metric or nautical units.
time (UTC)temp
F
wind
direction
speed
MPH
gust
MPH
rain 1hr
in
rain 24hr
in
rain mn
in
humidity
%
barometer
mb
20260503192524 58 0.0 0.0 0.00 0.00 0.00 68 1014.3
20260503192208 59 0.0 0.0 0.00 0.00 0.00 65 1014.4
20260503191522 60 0.0 0.0 0.00 0.00 0.00 63 1014.4
20260503191027 60 0.0 0.0 0.00 0.00 0.00 62 1014.3
20260503190550 60 0.0 0.0 0.00 0.00 0.00 61 1014.3
20260503190025 61 0.0 0.0 0.00 0.00 0.00 60 1014.3
20260503185619 61 0.0 0.0 0.00 0.00 0.00 59 1014.3
20260503185024 62 0.0 0.0 0.00 0.00 0.00 58 1014.4
20260503184547 62 321 0.0 1.0 0.00 0.00 0.00 57 1014.4
20260503184022 62 313 0.0 2.0 0.00 0.00 0.00 57 1014.4
20260503183615 62 348 0.0 2.0 0.00 0.00 0.00 57 1014.3
20260503183020 62 0.0 0.0 0.00 0.00 0.00 58 1014.3
20260503182525 62 315 0.0 2.0 0.00 0.00 0.00 57 1014.3
20260503182018 62 343 1.0 2.0 0.00 0.00 0.00 57 1014.3
20260503181523 62 318 0.0 1.0 0.00 0.00 0.00 58 1014.3
20260503181016 62 14 0.0 1.0 0.00 0.00 0.00 58 1014.4
20260503180522 62 303 1.0 2.0 0.00 0.00 0.00 59 1014.3
20260503180027 62 309 0.0 2.0 0.00 0.00 0.00 60 1014.3
20260503175519 62 339 0.0 2.0 0.00 0.00 0.00 60 1014.3
20260503175055 62 327 0.0 0.0 0.00 0.00 0.00 61 1014.3
20260503174518 62 319 0.0 1.0 0.00 0.00 0.00 61 1014.3
20260503174119 62 310 1.0 2.0 0.00 0.00 0.00 62 1014.3
20260503173516 62 305 0.0 2.0 0.00 0.00 0.00 62 1014.3
20260503173438 62 0.0 0.0 0.00 0.00 0.00 64 1014.2
20260503172547 62 0.0 0.0 0.00 0.00 0.00 65 1014.2
20260503172020 62 0.0 0.0 0.00 0.00 0.00 65 1014.2
20260503171613 63 318 1.0 2.0 0.00 0.00 0.00 64 1014.2
20260503171018 63 315 0.0 2.0 0.00 0.00 0.00 65 1014.2
20260503170650 63 311 1.0 5.0 0.00 0.00 0.00 63 1014.2
20260503150521 69 296 2.0 6.0 0.00 0.00 0.00 55 1014.4
20260503131016 72 277 2.0 6.0 0.00 0.00 0.00 42 1014.4
20260503130746 72 283 2.0 7.0 0.00 0.00 0.00 42 1014.4
20260503110555 71 319 1.0 5.0 0.00 0.00 0.00 41 1015.4
20260503081523 65 282 2.0 6.0 0.00 0.00 0.00 48 1016.4
20260503081015 65 270 2.0 10.0 0.00 0.00 0.00 49 1016.4
20260503080519 64 301 1.0 6.0 0.00 0.00 0.00 50 1016.3
20260503072617 65 281 4.0 7.0 0.00 0.00 0.00 50 1016.5
20260503072325 66 283 2.0 10.0 0.00 0.00 0.00 49 1016.6
20260503071556 66 333 0.0 2.0 0.00 0.00 0.00 49 1016.6
20260503071406 65 13 1.0 8.0 0.00 0.00 0.00 49 1016.5
20260503070522 65 322 2.0 3.0 0.00 0.00 0.00 51 1016.5
20260503070459 64 310 1.0 5.0 0.00 0.00 0.00 53 1016.5
20260503055048 61 0.0 0.0 0.00 0.00 0.00 61 1015.6
20260503054522 61 0.0 0.0 0.00 0.00 0.00 60 1015.6
20260503054027 61 0.0 0.0 0.00 0.00 0.00 60 1015.6
20260503053519 61 0.0 0.0 0.00 0.00 0.00 59 1015.6
20260503053024 59 0.0 0.0 0.00 0.00 0.00 62 1015.6
20260503052516 58 0.0 0.0 0.00 0.00 0.00 64 1015.6
20260503052020 57 0.0 0.0 0.00 0.00 0.00 65 1015.5
20260503051525 56 345 0.0 0.0 0.00 0.00 0.00 68 1015.5
20260503051017 55 0.0 0.0 0.00 0.00 0.00 70 1015.5
20260503050522 55 0.0 0.0 0.00 0.00 0.00 71 1015.5
20260503050026 55 345 0.0 0.0 0.00 0.00 0.00 71 1015.5
20260503045518 56 0.0 0.0 0.00 0.00 0.00 71 1015.5
20260503045023 56 0.0 0.0 0.00 0.00 0.00 70 1015.5
20260503044545 56 0.0 0.0 0.00 0.00 0.00 69 1015.6
20260503044019 57 314 0.0 1.0 0.00 0.00 0.00 68 1015.6
20260503043524 56 321 0.0 1.0 0.00 0.00 0.00 67 1015.6
20260503043016 56 317 0.0 2.0 0.00 0.00 0.00 67 1015.5
20260503042521 55 321 0.0 2.0 0.00 0.00 0.00 69 1015.5
20260503042025 54 307 1.0 2.0 0.00 0.00 0.00 73 1015.5
20260503041517 53 0.0 0.0 0.00 0.00 0.00 77 1015.5
20260503041022 53 0.0 0.0 0.00 0.00 0.00 80 1015.5
20260503040527 53 0.0 0.0 0.00 0.00 0.00 79 1015.5
20260503040019 54 0.0 0.0 0.00 0.00 0.00 78 1015.5
20260503035616 54 0.0 0.0 0.00 0.00 0.00 79 1015.6
20260503035046 54 0.0 0.0 0.00 0.00 0.00 78 1015.5
20260503034652 54 0.0 0.0 0.00 0.00 0.00 76 1015.5
20260503034025 54 0.0 0.0 0.00 0.00 0.00 76 1015.5
20260503033517 55 0.0 0.0 0.00 0.00 0.00 75 1015.6
20260503033052 55 0.0 0.0 0.00 0.00 0.00 75 1015.6
20260503032526 55 329 0.0 0.0 0.00 0.00 0.00 74 1015.6
20260503032019 55 0.0 0.0 0.00 0.00 0.00 74 1015.6
20260503031523 55 0.0 0.0 0.00 0.00 0.00 73 1015.6
20260503031046 55 0.0 0.0 0.00 0.00 0.00 71 1015.9
20260503030520 55 0.0 0.0 0.00 0.00 0.00 71 1016.6
20260503030025 55 0.0 0.0 0.00 0.00 0.00 72 1016.6
20260503025517 55 0.0 0.0 0.00 0.00 0.00 70 1016.6
20260503025022 55 0.0 0.0 0.00 0.00 0.00 71 1016.6
20260503024527 55 0.0 0.0 0.00 0.00 0.00 70 1016.6
20260503024019 55 0.0 0.0 0.00 0.00 0.00 70 1016.6
20260503023523 55 0.0 0.0 0.00 0.00 0.00 71 1016.6
20260503023016 55 0.0 0.0 0.00 0.00 0.00 71 1016.6
20260503022534 55 0.0 0.0 0.00 0.00 0.00 70 1016.6
20260503022026 55 0.0 0.0 0.00 0.00 0.00 71 1016.6
20260503021519 54 0.0 0.0 0.00 0.00 0.00 72 1016.6
20260503021023 54 0.0 0.0 0.00 0.00 0.00 73 1016.6
20260503020515 54 0.0 0.0 0.00 0.00 0.00 74 1015.6
20260503020020 53 0.0 0.0 0.00 0.00 0.00 75 1015.6
20260503015524 53 0.0 0.0 0.00 0.00 0.00 75 1015.5
20260503015016 53 0.0 0.0 0.00 0.00 0.00 76 1016.5
20260503014521 53 0.0 0.0 0.00 0.00 0.00 77 1016.6
20260503014026 53 0.0 0.0 0.00 0.00 0.00 78 1016.6
20260503013518 53 331 0.0 0.0 0.00 0.00 0.00 78 1016.6
20260503013023 53 0.0 0.0 0.00 0.00 0.00 77 1016.6
20260503012515 53 329 0.0 1.0 0.00 0.00 0.00 77 1016.6
20260503012020 53 304 0.0 2.0 0.00 0.00 0.00 77 1016.6
20260503011525 53 0.0 0.0 0.00 0.00 0.00 78 1016.6
20260503011017 53 0.0 0.0 0.00 0.00 0.00 77 1016.6
20260503010905 53 0.0 0.0 0.00 0.00 0.00 75 1016.5
20260503010027 53 0.0 0.0 0.00 0.00 0.00 77 1016.5
20260503005519 52 0.0 0.0 0.00 0.00 0.00 76 1016.5
20260503005053 52 0.0 0.0 0.00 0.00 0.00 76 1016.5
20260503004516 52 0.0 0.0 0.00 0.00 0.00 78 1016.5
20260503004021 52 0.0 0.0 0.00 0.00 0.00 78 1016.5
20260503003526 53 0.0 0.0 0.00 0.00 0.00 77 1016.5
20260503003018 53 0.0 0.0 0.00 0.00 0.00 76 1016.5
20260503002523 53 0.0 0.0 0.00 0.00 0.00 76 1016.5
20260503002015 53 0.0 0.0 0.00 0.00 0.00 75 1016.5
20260503001521 54 0.0 0.0 0.00 0.00 0.00 74 1016.5
20260503001025 54 0.0 0.0 0.00 0.00 0.00 72 1016.6
20260503000518 54 0.0 0.0 0.00 0.00 0.00 73 1016.6
20260503000329 54 0.0 0.0 0.00 0.00 0.00 72 1016.6
20260502235545 54 0.0 0.0 0.00 0.00 0.00 71 1016.6
20260502235403 55 0.0 0.0 0.00 0.00 0.00 68 1016.5
20260502234525 55 0.0 0.0 0.00 0.00 0.00 69 1016.5
20260502234047 56 0.0 0.0 0.00 0.00 0.00 67 1016.5
20260502233522 56 0.0 0.0 0.00 0.00 0.00 66 1016.8
20260502233057 56 0.0 0.0 0.00 0.00 0.00 64 1017.6
20260502232519 56 0.0 0.0 0.00 0.00 0.00 64 1017.5
20260502232024 57 0.0 0.0 0.00 0.00 0.00 64 1017.3
20260502231517 57 0.0 0.0 0.00 0.00 0.00 62 1016.5
20260502231022 57 0.0 0.0 0.00 0.00 0.00 62 1016.5
20260502230527 57 0.0 0.0 0.00 0.00 0.00 62 1016.6
20260502230019 56 0.0 0.0 0.00 0.00 0.00 63 1017.5
20260502225524 56 0.0 0.0 0.00 0.00 0.00 64 1017.5
20260502225017 56 0.0 0.0 0.00 0.00 0.00 65 1017.1
20260502224545 56 0.0 0.0 0.00 0.00 0.00 66 1016.5
20260502224020 55 0.0 0.0 0.00 0.00 0.00 68 1016.5
20260502223525 55 0.0 0.0 0.00 0.00 0.00 70 1016.8
20260502223017 56 0.0 0.0 0.00 0.00 0.00 71 1017.5
20260502222522 56 0.0 0.0 0.00 0.00 0.00 72 1017.5
20260502222251 56 0.0 0.0 0.00 0.00 0.00 71 1017.5
20260502221520 56 0.0 0.0 0.00 0.00 0.00 72 1017.5
20260502221445 55 0.0 0.0 0.00 0.00 0.00 72 1017.5
20260502220517 55 0.0 0.0 0.00 0.00 0.00 71 1017.5
20260502220022 54 0.0 0.0 0.00 0.00 0.00 74 1017.4
20260502215515 54 0.0 0.0 0.00 0.00 0.00 77 1017.4
20260502215049 53 0.0 0.0 0.00 0.00 0.00 79 1017.4
20260502214524 53 0.0 0.0 0.00 0.00 0.00 79 1017.4
20260502214017 53 0.0 0.0 0.00 0.00 0.00 79 1017.4
20260502213522 53 0.0 0.0 0.00 0.00 0.00 80 1017.4
20260502213027 54 0.0 0.0 0.00 0.00 0.00 80 1017.4
20260502212519 54 0.0 0.0 0.00 0.00 0.00 79 1017.4
20260502212024 54 0.0 0.0 0.00 0.00 0.00 79 1017.4
20260502211516 55 0.0 0.0 0.00 0.00 0.00 78 1017.4
20260502211051 55 0.0 0.0 0.00 0.00 0.00 77 1017.4
20260502210556 55 0.0 0.0 0.00 0.00 0.00 77 1017.4
20260502210019 55 0.0 0.0 0.00 0.00 0.00 76 1017.4
20260502205523 55 0.0 0.0 0.00 0.00 0.00 76 1017.4
20260502205016 55 0.0 0.0 0.00 0.00 0.00 75 1017.4
20260502204521 56 0.0 0.0 0.00 0.00 0.00 76 1017.4
20260502204025 56 0.0 0.0 0.00 0.00 0.00 74 1017.4
20260502203518 56 0.0 0.0 0.00 0.00 0.00 74 1017.4
20260502203022 57 0.0 0.0 0.00 0.00 0.00 72 1017.4
20260502202515 57 0.0 0.0 0.00 0.00 0.00 71 1017.4
20260502202020 57 0.0 0.0 0.00 0.00 0.00 72 1017.4
20260502201525 58 0.0 0.0 0.00 0.00 0.00 73 1017.4
20260502201018 58 0.0 0.0 0.00 0.00 0.00 71 1017.4
20260502200523 58 0.0 0.0 0.00 0.00 0.00 69 1017.4
20260502200015 59 0.0 0.0 0.00 0.00 0.00 67 1017.4
20260502195550 59 0.0 0.0 0.00 0.00 0.00 66 1017.4
20260502195026 60 0.0 0.0 0.00 0.00 0.00 65 1017.4
20260502194518 60 0.0 0.0 0.00 0.00 0.00 64 1017.4
20260502194036 60 0.0 0.0 0.00 0.00 0.00 64 1017.4
20260502193530 61 0.0 0.0 0.00 0.00 0.00 65 1017.4
20260502193022 61 0.0 0.0 0.00 0.00 0.00 62 1017.0